This demonstration page uses our WeatherBlox Daily Observations layout. Learn more.

Left ArrowRight Arrow

39.12711, -84.51439

Hourly Observations for January 16, 2017

Temp ( °F °C ) Dew Point ( °F °C ) Humidity (%) Winds ( mph kmh ) Pressure ( in mb ) Visibility ( mi km ) Precip ( " mm )
12:53 am 00:53 Cloudy with Mist and Fog 38 3.3 38 3.3 100 100 NE 3 6 30.32 1027 3 5 0.00 0.00
1:09 am 01:09 Cloudy with Mist and Fog 38 3.3 38 3.3 100 100 NNE 5 7 30.30 1026 3 5 0.00 0.00
1:35 am 01:35 Cloudy with Mist and Fog 38 3.3 38 3.3 100 100 NNE 6 9 30.33 1027 3 5 0.00 0.00
1:53 am 01:53 Cloudy with Mist and Fog 38 3.3 38 3.3 100 100 NE 3 6 30.33 1027 3 5 0.00 0.00
2:14 am 02:14 Cloudy with Mist and Fog 39 4 37 3 93 93 NE 3 6 30.33 1027 4 6 0.00 0.00
2:53 am 02:53 Cloudy with Mist and Fog 39 3.9 38 3.3 96 96 NNE 5 7 30.33 1027 4 6 0.00 0.00
3:38 am 03:38 Cloudy with Mist and Fog 39 4 37 3 93 93 NE 5 7 30.30 1026 5 8 0.00 0.00
3:53 am 03:53 Cloudy with Mist and Fog 39 3.9 38 3.3 96 96 NE 3 6 30.32 1027 5 8 0.00 0.00
4:38 am 04:38 Cloudy with Mist and Fog 39 4 37 3 93 93 NNE 5 7 30.30 1026 5 8 0.00 0.00
4:53 am 04:53 Cloudy with Mist and Fog 39 3.9 38 3.3 96 96 NE 3 6 30.31 1027 5 8 0.00 0.00
5:53 am 05:53 Cloudy with Mist and Fog 39 3.9 39 3.9 100 100 NE 5 7 30.31 1027 5 8 0.00 0.03
6:53 am 06:53 Cloudy with Mist and Fog 39 3.9 39 3.9 100 100 NNE 3 6 30.33 1027 5 8 0.00 0.00
7:53 am 07:53 Cloudy with Mist and Fog 40 4.4 39 3.9 97 97 NE 3 6 30.31 1027 4 6 0.00 0.00
8:53 am 08:53 Cloudy with Mist and Fog 40 4.4 40 4.4 100 100 Calm 30.32 1027 3 5 0.00 0.00
9:53 am 09:53 Cloudy with Mist and Fog 42 5.6 40 4.4 92 92 S 5 7 30.32 1027 4 6 0.00 0.00
10:53 am 10:53 Cloudy with Mist and Fog 43 6.1 42 5.6 97 97 Calm 30.31 1027 5 8 0.00 0.00
11:53 am 11:53 Cloudy with Light Rain 44 6.7 42 5.6 93 93 Calm 30.29 1026 5 8 0.00 0.03
12:53 pm 12:53 Cloudy with Mist and Fog 46 7.8 44 6.7 93 93 Calm 30.26 1025 7 11 0.00 0.03
1:53 pm 13:53 Cloudy 49 9.4 46 7.8 90 90 Calm 30.21 1023 9 14 0.00 0.03
2:53 pm 14:53 Cloudy 49 9.4 47 8.3 93 93 WSW 5 7 30.19 1022 7 11 0.00 0.00
3:53 pm 15:53 Cloudy 50 10 48 8.9 93 93 W 5 7 30.18 1022 7 11 0.00 0.00
4:53 pm 16:53 Cloudy with Mist and Fog 50 10 49 9.4 96 96 Calm 30.17 1022 6 10 0.00 0.00
5:53 pm 17:53 Cloudy with Light Rain 50 10 49 9.4 96 96 Calm 30.18 1022 6 10 0.01 0.25
6:53 pm 18:53 Cloudy with Light Rain 48 8.9 48 8.9 100 100 Calm 30.16 1021 5 8 0.00 0.03
7:53 pm 19:53 Cloudy with Light Rain 48 8.9 48 8.9 100 100 Calm 30.16 1022 3 5 0.06 1.52
8:11 pm 20:11 Cloudy with Light Rain 48 8.9 48 8.9 100 100 Calm 30.15 1021 2 3 0.00 0.03
8:53 pm 20:53 Cloudy with Mist and Fog 48 8.9 48 8.9 100 100 Calm 30.13 1020 3 5 0.00 0.03
9:43 pm 21:43 Cloudy with Mist and Fog 47 8.3 47 8.3 100 100 S 5 7 30.09 1019 1 1 0.00 0.00
9:50 pm 21:50 Cloudy with Mist and Fog 46 8 46 8 100 100 SSW 5 7 30.09 1019 1 2 0.00 0.00
9:53 pm 21:53 Cloudy with Mist and Fog 47 8.3 47 8.3 100 100 SSW 5 7 30.10 1019 1 2 0.00 0.00
10:53 pm 22:53 Cloudy with Mist and Fog 47 8.3 47 8.3 100 100 Calm 30.07 1018 2 3 0.00 0.00
11:04 pm 23:04 Cloudy with Mist and Fog 46 8 46 8 100 100 Calm 30.06 1018 3 4 0.00 0.00
11:24 pm 23:24 Cloudy with Mist and Fog 46 8 46 8 100 100 Calm 30.06 1018 3 5 0.00 0.00
11:53 pm 23:53 Cloudy with Rain 47 8.3 47 8.3 100 100 Calm 30.06 1018 3 5 0.03 0.76

Powered by AerisWeather